EDT,Max TemperatureF,Mean TemperatureF,Min TemperatureF,Max Dew PointF,MeanDew PointF,Min DewpointF,Max Humidity, Mean Humidity, Min Humidity, Max Sea Level PressureIn, Mean Sea Level PressureIn, Min Sea Level PressureIn, Max VisibilityMiles, Mean VisibilityMiles, Min VisibilityMiles, Max Wind SpeedMPH, Mean Wind SpeedMPH, Max Gust SpeedMPH,PrecipitationIn, CloudCover, Events, WindDirDegrees
2014-3-1,58,45,32,38,30,13,73,55,37,30.21,30.14,30.10,10,10,10,14,8,18,T,8,,201
2014-3-2,51,37,23,39,30,19,96,79,61,30.17,30.10,30.05,10,5,1,21,11,24,1.02,8,Rain-Snow-Thunderstorm,15
2014-3-3,23,16,9,19,11,2,88,72,56,30.41,30.24,30.12,10,5,0,25,15,33,0.42,6,Fog-Snow,27
2014-3-4,31,20,8,23,10,2,80,65,49,30.36,30.29,30.20,10,10,10,14,5,16,0.00,0,,72
2014-3-5,40,30,19,26,21,16,96,72,48,30.31,30.24,30.16,10,5,0,15,7,18,0.00,3,Fog,67
2014-3-6,44,34,24,29,23,17,75,65,54,30.26,30.19,30.07,10,10,10,16,10,21,0.00,0,,49
2014-3-7,58,43,28,38,31,23,78,63,47,30.07,30.02,29.97,10,10,10,10,5,13,0.00,0,,167
2014-3-8,61,48,34,39,34,29,82,60,37,30.15,30.06,30.01,10,10,4,18,8,23,T,2,Rain,226
2014-3-9,51,42,33,34,28,24,85,62,39,30.29,30.18,30.06,10,8,3,17,7,23,0.00,4,,273
2014-3-10,66,51,36,41,35,27,85,62,39,30.06,29.93,29.81,10,10,6,22,12,27,0.00,0,,220
2014-3-11,75,62,48,45,40,35,71,48,25,29.81,29.71,29.58,10,10,10,20,11,27,T,1,Rain,212
2014-3-12,63,46,29,57,39,20,90,69,48,30.01,29.61,29.30,10,8,2,33,17,45,0.11,8,Rain-Snow,284
2014-3-13,39,28,18,18,13,6,72,50,19,30.26,30.16,30.01,10,10,10,13,9,,0.00,1,,280
2014-3-14,63,48,33,32,26,18,56,42,27,30.15,30.02,29.88,10,10,10,35,18,44,0.00,1,,207
2014-3-15,65,53,40,36,30,25,76,49,22,30.11,30.04,29.95,10,10,10,20,9,27,0.00,1,,243
2014-3-16,47,37,26,29,26,21,85,67,49,30.03,29.94,29.88,10,7,2,35,21,40,0.20,7,Rain-Snow,42
2014-3-17,43,35,26,32,25,19,81,73,65,29.93,29.88,29.82,10,10,9,21,10,24,T,8,Snow,46
2014-3-18,53,46,39,43,37,31,89,76,63,29.99,29.91,29.86,10,10,10,16,8,21,0.00,7,,129
2014-3-19,59,51,43,46,42,34,86,72,57,30.05,29.89,29.84,10,10,10,28,17,38,T,6,,214
2014-3-20,57,44,31,33,28,25,85,58,30,30.17,30.10,30.06,10,10,7,16,8,22,0.00,2,,254
2014-3-21,69,55,40,30,27,25,59,39,19,30.07,30.00,29.90,10,10,10,21,11,26,0.00,0,,195
2014-3-22,60,50,39,36,31,28,70,51,31,30.17,30.03,29.87,10,10,10,17,9,23,0.00,0,,310
2014-3-23,46,37,27,30,24,16,76,55,33,30.32,30.24,30.16,10,10,9,18,10,23,0.00,3,,4
2014-3-24,44,32,20,26,15,12,75,52,29,30.35,30.26,30.12,10,10,10,14,7,16,0.00,2,,36
2014-3-25,38,32,25,29,26,14,92,69,45,30.22,30.05,29.99,10,4,0,28,10,35,0.13,7,Fog-Snow,311
2014-3-26,41,30,19,15,13,10,68,49,30,30.41,30.31,30.24,10,10,10,12,5,13,0.00,1,,228
2014-3-27,62,47,32,30,18,15,47,33,19,30.26,30.08,29.85,10,10,10,38,18,53,0.03,6,Rain,169
2014-3-28,68,59,50,55,50,42,86,73,59,30.06,29.95,29.85,10,9,2,30,15,39,0.22,6,Rain,227
2014-3-29,52,45,37,43,39,33,96,82,68,30.12,29.93,29.86,10,6,2,23,14,33,0.76,8,Rain,359
2014-3-30,57,45,32,34,30,26,92,62,32,30.23,30.18,30.12,10,9,7,15,7,23,0.00,3,,329
2014-3-31,68,50,32,34,29,27,85,54,22,30.23,30.14,30.01,10,10,10,13,7,16,0.00,0,,133